Weather History for Cotulla, TX

Change the Weather History Date:

Friday, November 23, 2012

  Actual Average Record
Temperature  
Mean Temperature 71 °F -  
Max Temperature 79 °F 70 °F 89 °F (2001)
Min Temperature 63 °F 49 °F 39 °F (2005)
Cooling Degree Days 6    
Growing Degree Days 21 (Base 50)    
Moisture  
Dew Point 56 °F    
Average Humidity 64    
Maximum Humidity 87    
Minimum Humidity 37    
Precipitation  
Precipitation 0.00 in - - ()
Sea Level Pressure  
Sea Level Pressure 30.22 in    
Wind  
Wind Speed 6 mph (NE)    
Max Wind Speed 15 mph    
Max Gust Speed 24 mph    
Visibility 10 miles    
Events      
Averages and records for this station are not official NWS values.
T = Trace of Precipitation, MM = Missing Value Source: NWS Daily Summary

Daily Weather History Graph

Daily Weather History Graph

Search for Another Location

Airport:

Trip Planner

Search our weather history database for the weather conditions in past years. The results will help you decide how hot, cold, wet, or windy it might be!

Date:

Astronomy

Nov. 23, 2012 Rise Set
Actual Time 7:06 AM CST 5:40 PM CST
Civil Twilight 6:40 AM CST 6:05 PM CST
Nautical Twilight 6:11 AM CST 6:34 PM CST
Astronomical Twilight 5:43 AM CST 7:03 PM CST
Moon 2:39 PM CST (11/23) 2:45 AM CST (11/23)
Length of Visible Light 11h 25m
Length of Day
10h 34m
Waxing Gibbous, 80% of the Moon is Illuminated
Nov 23
Waxing Gibbous
Nov 28
Full
Dec 6
Last Quarter
Dec 13
New
Dec 19
First Quarter

Hourly Weather History & Observations

Time (CST) Temp. Dew Point Humidity Pressure Visibility Wind Dir Wind Speed Gust Speed Precip Events Conditions
12:53 AM 64.0 °F 59.0 °F 84% 30.09 in 10.0 mi SE 4.6 mph - N/A   Clear
1:53 AM 64.0 °F 59.0 °F 84% 30.09 in 10.0 mi Calm Calm - N/A   Clear
2:53 AM 64.0 °F 60.1 °F 87% 30.10 in 10.0 mi East 3.5 mph - N/A   Mostly Cloudy
3:53 AM 64.0 °F 60.1 °F 87% 30.10 in 10.0 mi East 3.5 mph - N/A   Overcast
4:53 AM 64.0 °F 60.1 °F 87% 30.12 in 10.0 mi East 5.8 mph - N/A   Overcast
5:53 AM 64.9 °F 61.0 °F 87% 30.13 in 10.0 mi East 4.6 mph - N/A   Overcast
6:53 AM 63.0 °F 59.0 °F 87% 30.15 in 10.0 mi ENE 3.5 mph - N/A   Partly Cloudy
7:53 AM 64.0 °F 60.1 °F 87% 30.17 in 10.0 mi East 4.6 mph - N/A   Clear
8:53 AM 70.0 °F 62.1 °F 76% 30.19 in 10.0 mi ESE 4.6 mph - N/A   Clear
9:53 AM 75.0 °F 63.0 °F 66% 30.24 in 10.0 mi Calm Calm - N/A   Clear
10:53 AM 77.0 °F 63.0 °F 62% 30.25 in 10.0 mi NE 6.9 mph - N/A   Mostly Cloudy
11:03 AM 78.8 °F 62.6 °F 57% 30.26 in 10.0 mi Variable 3.5 mph - N/A   Scattered Clouds
11:53 AM 79.0 °F 63.0 °F 58% 30.24 in 10.0 mi Variable 6.9 mph - N/A   Mostly Cloudy
12:53 PM 79.0 °F 63.0 °F 58% 30.22 in 10.0 mi North 8.1 mph - N/A   Scattered Clouds
1:53 PM 79.0 °F 63.0 °F 58% 30.19 in 10.0 mi North 15.0 mph 21.9 mph N/A   Mostly Cloudy
2:53 PM 79.0 °F 61.0 °F 54% 30.19 in 10.0 mi North 15.0 mph 21.9 mph N/A   Partly Cloudy
3:53 PM 75.0 °F 54.0 °F 48% 30.18 in 10.0 mi North 15.0 mph 24.2 mph N/A   Clear
4:53 PM 73.9 °F 54.0 °F 50% 30.22 in 10.0 mi NE 13.8 mph 19.6 mph N/A   Mostly Cloudy
5:53 PM 71.1 °F 55.0 °F 57% 30.25 in 10.0 mi NNE 15.0 mph 20.7 mph N/A   Overcast
6:53 PM 69.1 °F 53.1 °F 57% 30.29 in 10.0 mi NNE 8.1 mph - N/A   Overcast
7:53 PM 66.9 °F 48.0 °F 51% 30.31 in 10.0 mi NE 10.4 mph 19.6 mph N/A   Mostly Cloudy
8:53 PM 66.0 °F 45.0 °F 47% 30.34 in 10.0 mi NNE 8.1 mph - N/A   Overcast
9:53 PM 64.9 °F 39.9 °F 40% 30.36 in 10.0 mi NE 9.2 mph - N/A   Overcast
10:53 PM 63.0 °F 37.9 °F 40% 30.35 in 10.0 mi North 4.6 mph - N/A   Scattered Clouds
11:53 PM 63.0 °F 36.0 °F 37% 30.35 in 10.0 mi NNE 5.8 mph - N/A   Overcast